| time (UTC) | temp C | wind direction | speed KPH | gust KPH | rain 1hr cm | rain 24hr cm | rain mn cm | humidity % | barometer mb |
| 20260505001705 | 20 | 190 | 8.0 | 14.5 | 0.00 | 0.00 | 0.00 | 52 | 1009.2 |
| 20260505001204 | 20 | 185 | 6.4 | 11.3 | 0.00 | 0.00 | 0.00 | 54 | 1009.2 |
| 20260505000705 | 20 | 190 | 6.4 | 11.3 | 0.00 | 0.00 | 0.00 | 52 | 1009.2 |
| 20260505000205 | 20 | 201 | 9.7 | 16.1 | 0.00 | 0.00 | 0.00 | 53 | 1009.2 |
| 20260504235205 | 20 | 200 | 9.7 | 19.3 | 0.00 | 0.00 | 0.00 | 51 | 1009.2 |
| 20260504234705 | 20 | 182 | 11.3 | 16.1 | 0.00 | 0.00 | 0.00 | 51 | 1009.2 |
| 20260504234204 | 20 | 205 | 12.9 | 22.5 | 0.00 | 0.00 | 0.00 | 53 | 1009.2 |
| 20260504233704 | 20 | 209 | 12.9 | 19.3 | 0.00 | 0.00 | 0.00 | 54 | 1009.2 |
| 20260504232205 | 20 | 204 | 14.5 | 22.5 | 0.00 | 0.00 | 0.00 | 50 | 1009.1 |
| 20260504231704 | 21 | 195 | 14.5 | 25.7 | 0.00 | 0.00 | 0.00 | 48 | 1009.0 |
| 20260504230205 | 21 | 181 | 11.3 | 24.1 | 0.00 | 0.00 | 0.00 | 47 | 1009.0 |
| 20260504225705 | 21 | 183 | 14.5 | 25.7 | 0.00 | 0.00 | 0.00 | 47 | 1009.1 |
| 20260504225204 | 21 | 190 | 16.1 | 25.7 | 0.00 | 0.00 | 0.00 | 46 | 1009.0 |
| 20260504224204 | 21 | 195 | 11.3 | 29.0 | 0.00 | 0.00 | 0.00 | 45 | 1009.0 |
| 20260504223705 | 21 | 170 | 16.1 | 32.2 | 0.00 | 0.00 | 0.00 | 43 | 1009.0 |
| 20260504223204 | 21 | 198 | 14.5 | 25.7 | 0.00 | 0.00 | 0.00 | 44 | 1008.9 |
| 20260504222704 | 21 | 192 | 14.5 | 24.1 | 0.00 | 0.00 | 0.00 | 43 | 1009.0 |
| 20260504222204 | 21 | 163 | 16.1 | 27.4 | 0.00 | 0.00 | 0.00 | 43 | 1009.0 |
| 20260504221204 | 21 | 186 | 14.5 | 24.1 | 0.00 | 0.00 | 0.00 | 41 | 1009.1 |
| 20260504220705 | 21 | 196 | 16.1 | 24.1 | 0.00 | 0.00 | 0.00 | 44 | 1009.2 |
| 20260504220205 | 21 | 193 | 14.5 | 25.7 | 0.00 | 0.00 | 0.00 | 44 | 1009.1 |
| 20260504215704 | 22 | 182 | 16.1 | 29.0 | 0.00 | 0.00 | 0.00 | 44 | 1009.1 |
| 20260504215204 | 22 | 195 | 16.1 | 25.7 | 0.00 | 0.00 | 0.00 | 42 | 1009.1 |
| 20260504214704 | 22 | 181 | 16.1 | 25.7 | 0.00 | 0.00 | 0.00 | 41 | 1009.1 |
| 20260504214204 | 22 | 198 | 17.7 | 32.2 | 0.00 | 0.00 | 0.00 | 41 | 1009.0 |
| 20260504213704 | 23 | 170 | 17.7 | 32.2 | 0.00 | 0.00 | 0.00 | 40 | 1009.2 |
| 20260504213205 | 23 | 183 | 11.3 | 24.1 | 0.00 | 0.00 | 0.00 | 41 | 1009.1 |
| 20260504212204 | 23 | 190 | 16.1 | 32.2 | 0.00 | 0.00 | 0.00 | 41 | 1009.2 |
| 20260504211705 | 23 | 194 | 14.5 | 27.4 | 0.00 | 0.00 | 0.00 | 41 | 1009.3 |
| 20260504211205 | 23 | 201 | 14.5 | 22.5 | 0.00 | 0.00 | 0.00 | 42 | 1009.3 |
| 20260504210704 | 23 | 185 | 16.1 | 27.4 | 0.00 | 0.00 | 0.00 | 42 | 1009.2 |
| 20260504205704 | 23 | 200 | 12.9 | 20.9 | 0.00 | 0.00 | 0.00 | 40 | 1009.3 |
| 20260504205204 | 23 | 182 | 14.5 | 27.4 | 0.00 | 0.00 | 0.00 | 40 | 1009.2 |
| 20260504204704 | 23 | 202 | 16.1 | 24.1 | 0.00 | 0.00 | 0.00 | 41 | 1009.3 |
| 20260504204204 | 23 | 204 | 14.5 | 25.7 | 0.00 | 0.00 | 0.00 | 39 | 1009.3 |
| 20260504203704 | 23 | 211 | 16.1 | 32.2 | 0.00 | 0.00 | 0.00 | 39 | 1009.3 |
| 20260504203204 | 23 | 187 | 19.3 | 32.2 | 0.00 | 0.00 | 0.00 | 38 | 1009.3 |
| 20260504202704 | 23 | 194 | 16.1 | 27.4 | 0.00 | 0.00 | 0.00 | 40 | 1009.4 |
| 20260504202204 | 23 | 202 | 16.1 | 33.8 | 0.00 | 0.00 | 0.00 | 37 | 1009.5 |
| 20260504201704 | 23 | 209 | 16.1 | 32.2 | 0.00 | 0.00 | 0.00 | 42 | 1009.6 |
| 20260504201204 | 23 | 196 | 17.7 | 29.0 | 0.00 | 0.00 | 0.00 | 40 | 1009.6 |
| 20260504200704 | 23 | 193 | 16.1 | 32.2 | 0.00 | 0.00 | 0.00 | 39 | 1009.6 |
| 20260504200204 | 23 | 205 | 16.1 | 22.5 | 0.00 | 0.00 | 0.00 | 41 | 1009.7 |
| 20260504195204 | 23 | 205 | 16.1 | 32.2 | 0.00 | 0.00 | 0.00 | 38 | 1009.9 |
| 20260504194704 | 23 | 210 | 14.5 | 20.9 | 0.00 | 0.00 | 0.00 | 38 | 1009.9 |
| 20260504194204 | 23 | 209 | 14.5 | 25.7 | 0.00 | 0.00 | 0.00 | 40 | 1010.0 |
| 20260504193704 | 23 | 213 | 17.7 | 25.7 | 0.00 | 0.00 | 0.00 | 39 | 1010.2 |
| 20260504193204 | 23 | 204 | 14.5 | 25.7 | 0.00 | 0.00 | 0.00 | 39 | 1010.2 |
| 20260504192704 | 23 | 195 | 19.3 | 27.4 | 0.00 | 0.00 | 0.00 | 40 | 1010.3 |
| 20260504192204 | 22 | 202 | 14.5 | 19.3 | 0.00 | 0.00 | 0.00 | 41 | 1010.3 |
| 20260504191704 | 22 | 187 | 14.5 | 24.1 | 0.00 | 0.00 | 0.00 | 40 | 1010.4 |
| 20260504191204 | 22 | 192 | 11.3 | 20.9 | 0.00 | 0.00 | 0.00 | 42 | 1010.4 |
| 20260504190204 | 22 | 204 | 14.5 | 20.9 | 0.00 | 0.00 | 0.00 | 41 | 1010.5 |
| 20260504185704 | 22 | 194 | 11.3 | 25.7 | 0.00 | 0.00 | 0.00 | 39 | 1010.6 |
| 20260504185204 | 22 | 200 | 16.1 | 27.4 | 0.00 | 0.00 | 0.00 | 37 | 1010.7 |
| 20260504184704 | 22 | 201 | 19.3 | 27.4 | 0.00 | 0.00 | 0.00 | 40 | 1010.8 |
| 20260504184204 | 22 | 177 | 16.1 | 27.4 | 0.00 | 0.00 | 0.00 | 36 | 1010.9 |
| 20260504183704 | 22 | 202 | 14.5 | 20.9 | 0.00 | 0.00 | 0.00 | 41 | 1011.0 |
| 20260504183204 | 22 | 189 | 17.7 | 29.0 | 0.00 | 0.00 | 0.00 | 37 | 1011.1 |
| 20260504182204 | 22 | 194 | 17.7 | 25.7 | 0.00 | 0.00 | 0.00 | 37 | 1011.2 |
| 20260504181204 | 22 | 195 | 14.5 | 25.7 | 0.00 | 0.00 | 0.00 | 39 | 1011.2 |
| 20260504180704 | 22 | 206 | 16.1 | 22.5 | 0.00 | 0.00 | 0.00 | 39 | 1011.3 |
| 20260504180204 | 22 | 195 | 16.1 | 22.5 | 0.00 | 0.00 | 0.00 | 40 | 1011.4 |
| 20260504175705 | 22 | 207 | 14.5 | 20.9 | 0.00 | 0.00 | 0.00 | 39 | 1011.5 |
| 20260504175204 | 22 | 199 | 14.5 | 20.9 | 0.00 | 0.00 | 0.00 | 41 | 1011.6 |
| 20260504174704 | 21 | 204 | 14.5 | 19.3 | 0.00 | 0.00 | 0.00 | 43 | 1011.6 |
| 20260504174204 | 21 | 202 | 14.5 | 20.9 | 0.00 | 0.00 | 0.00 | 40 | 1011.7 |
| 20260504173704 | 21 | 208 | 12.9 | 24.1 | 0.00 | 0.00 | 0.00 | 40 | 1011.7 |
| 20260504173204 | 21 | 210 | 12.9 | 22.5 | 0.00 | 0.00 | 0.00 | 39 | 1011.7 |
| 20260504172704 | 21 | 209 | 16.1 | 24.1 | 0.00 | 0.00 | 0.00 | 39 | 1011.7 |
| 20260504171704 | 21 | 210 | 12.9 | 19.3 | 0.00 | 0.00 | 0.00 | 40 | 1011.8 |
| 20260504171204 | 21 | 179 | 12.9 | 19.3 | 0.00 | 0.00 | 0.00 | 41 | 1011.7 |
| 20260504170704 | 21 | 175 | 9.7 | 16.1 | 0.00 | 0.00 | 0.00 | 43 | 1011.8 |
| 20260504170205 | 21 | 203 | 11.3 | 19.3 | 0.00 | 0.00 | 0.00 | 43 | 1011.8 |
| 20260504160204 | 20 | 160 | 9.7 | 19.3 | 0.00 | 0.00 | 0.00 | 44 | 1012.6 |
| 20260504150204 | 20 | 199 | 14.5 | 19.3 | 0.00 | 0.00 | 0.00 | 49 | 1013.1 |
| 20260504141204 | 17 | 202 | 14.5 | 19.3 | 0.00 | 0.00 | 0.00 | 53 | 1013.2 |
| 20260504140704 | 17 | 202 | 11.3 | 14.5 | 0.00 | 0.00 | 0.00 | 51 | 1013.2 |
| 20260504120203 | 15 | 207 | 16.1 | 22.5 | 0.00 | 0.00 | 0.00 | 63 | 1013.9 |
| 20260504110704 | 12 | 210 | 14.5 | 20.9 | 0.00 | 0.00 | 0.00 | 69 | 1014.2 |
| 20260504110204 | 12 | 193 | 16.1 | 20.9 | 0.00 | 0.00 | 0.00 | 69 | 1014.4 |
| 20260504100203 | 13 | 218 | 17.7 | 22.5 | 0.00 | 0.00 | 0.00 | 68 | 1014.4 |
| 20260504081705 | 13 | 194 | 17.7 | 32.2 | 0.00 | 0.00 | 0.00 | 68 | 1014.2 |
| 20260504081206 | 13 | 197 | 17.7 | 32.2 | 0.00 | 0.00 | 0.00 | 70 | 1014.2 |
| 20260504080706 | 13 | 199 | 12.9 | 24.1 | 0.00 | 0.00 | 0.00 | 69 | 1014.2 |
| 20260504080205 | 13 | 198 | 19.3 | 27.4 | 0.00 | 0.00 | 0.00 | 70 | 1014.2 |
| 20260504070206 | 13 | 213 | 17.7 | 24.1 | 0.00 | 0.00 | 0.00 | 72 | 1014.5 |
| 20260504060206 | 12 | 195 | 14.5 | 22.5 | 0.00 | 0.00 | 0.00 | 71 | 1014.6 |
| 20260504050706 | 10 | 198 | 14.5 | 20.9 | 0.00 | 0.00 | 0.00 | 76 | 1014.4 |
| 20260504050206 | 10 | 198 | 11.3 | 19.3 | 0.00 | 0.00 | 0.00 | 75 | 1014.4 |
| 20260504045205 | 10 | 203 | 14.5 | 19.3 | 0.00 | 0.00 | 0.00 | 73 | 1014.5 |
| 20260504044706 | 10 | 196 | 16.1 | 22.5 | 0.00 | 0.00 | 0.00 | 72 | 1014.4 |
| 20260504044205 | 10 | 206 | 14.5 | 19.3 | 0.00 | 0.00 | 0.00 | 73 | 1014.5 |
| 20260504043705 | 10 | 204 | 14.5 | 20.9 | 0.00 | 0.00 | 0.00 | 74 | 1014.5 |
| 20260504043205 | 10 | 209 | 14.5 | 19.3 | 0.00 | 0.00 | 0.00 | 74 | 1014.5 |
| 20260504042705 | 9 | 202 | 14.5 | 19.3 | 0.00 | 0.00 | 0.00 | 75 | 1014.4 |
| 20260504041705 | 9 | 205 | 11.3 | 19.3 | 0.00 | 0.00 | 0.00 | 76 | 1014.3 |
| 20260504041205 | 9 | 212 | 11.3 | 14.5 | 0.00 | 0.00 | 0.00 | 77 | 1014.4 |
| 20260504040205 | 8 | 212 | 12.9 | 16.1 | 0.00 | 0.00 | 0.00 | 78 | 1014.4 |
| 20260504035705 | 8 | 214 | 11.3 | 14.5 | 0.00 | 0.00 | 0.00 | 78 | 1014.3 |
| 20260504035205 | 8 | 206 | 11.3 | 14.5 | 0.00 | 0.00 | 0.00 | 79 | 1014.2 |
| 20260504034706 | 8 | 212 | 14.5 | 19.3 | 0.00 | 0.00 | 0.00 | 80 | 1014.3 |
| 20260504034205 | 8 | 205 | 14.5 | 19.3 | 0.00 | 0.00 | 0.00 | 79 | 1014.2 |
| 20260504033705 | 8 | 202 | 11.3 | 16.1 | 0.00 | 0.00 | 0.00 | 78 | 1014.2 |
| 20260504033205 | 8 | 199 | 8.0 | 11.3 | 0.00 | 0.00 | 0.00 | 77 | 1014.2 |
| 20260504031705 | 8 | 122 | 1.6 | 3.2 | 0.00 | 0.00 | 0.00 | 77 | 1014.0 |
| 20260504031205 | 8 | 25 | 0.0 | 1.6 | 0.00 | 0.00 | 0.00 | 76 | 1014.0 |
| 20260504030705 | 8 | 25 | 0.0 | 1.6 | 0.00 | 0.00 | 0.00 | 76 | 1014.1 |
| 20260504025705 | 8 | 25 | 0.0 | 1.6 | 0.00 | 0.00 | 0.00 | 76 | 1014.0 |
| 20260504025205 | 8 | 25 | 0.0 | 0.0 | 0.00 | 0.00 | 0.00 | 76 | 1014.0 |
| 20260504024705 | 8 | 25 | 1.6 | 3.2 | 0.00 | 0.00 | 0.00 | 76 | 1014.0 |
| 20260504024205 | 8 | 25 | 1.6 | 3.2 | 0.00 | 0.00 | 0.00 | 75 | 1014.0 |
| 20260504022705 | 8 | 15 | 0.0 | 0.0 | 0.00 | 0.00 | 0.00 | 73 | 1014.0 |
| 20260504022205 | 8 | 15 | 0.0 | 0.0 | 0.00 | 0.00 | 0.00 | 72 | 1014.0 |
| 20260504021705 | 8 | 15 | 0.0 | 1.6 | 0.00 | 0.00 | 0.00 | 72 | 1013.9 |
| 20260504021205 | 8 | 15 | 0.0 | 1.6 | 0.00 | 0.00 | 0.00 | 72 | 1013.9 |
| 20260504020705 | 9 | 15 | 0.0 | 1.6 | 0.00 | 0.00 | 0.00 | 72 | 1013.9 |
| 20260504020205 | 9 | 15 | 0.0 | 0.0 | 0.00 | 0.00 | 0.00 | 72 | 1013.9 |
| 20260504015705 | 9 | 15 | 0.0 | 0.0 | 0.00 | 0.00 | 0.00 | 72 | 1014.0 |
| 20260504015205 | 9 | 15 | 0.0 | 0.0 | 0.00 | 0.00 | 0.00 | 72 | 1014.0 |
| 20260504014705 | 10 | 15 | 0.0 | 0.0 | 0.00 | 0.00 | 0.00 | 71 | 1013.9 |
| 20260504013205 | 10 | 15 | 0.0 | 1.6 | 0.00 | 0.00 | 0.00 | 67 | 1013.8 |
| 20260504012705 | 10 | 331 | 0.0 | 0.0 | 0.00 | 0.00 | 0.00 | 67 | 1013.7 |
| 20260504012206 | 10 | 321 | 0.0 | 1.6 | 0.00 | 0.00 | 0.00 | 68 | 1013.6 |
| 20260504011705 | 10 | 321 | 0.0 | 0.0 | 0.00 | 0.00 | 0.00 | 67 | 1013.5 |
| 20260504010205 | 11 | 291 | 0.0 | 1.6 | 0.00 | 0.00 | 0.00 | 64 | 1013.6 |
| 20260504005705 | 11 | 290 | 0.0 | 0.0 | 0.00 | 0.00 | 0.00 | 64 | 1013.6 |
| 20260504004206 | 12 | 290 | 0.0 | 0.0 | 0.00 | 0.00 | 0.00 | 59 | 1013.4 |
| 20260504003706 | 12 | 290 | 0.0 | 0.0 | 0.00 | 0.00 | 0.00 | 55 | 1013.3 |
| 20260504003206 | 12 | 290 | 0.0 | 0.0 | 0.00 | 0.00 | 0.00 | 54 | 1013.3 |
| 20260504002706 | 12 | 290 | 0.0 | 0.0 | 0.00 | 0.00 | 0.00 | 55 | 1013.2 |
| 20260504002205 | 12 | 290 | 0.0 | 0.0 | 0.00 | 0.00 | 0.00 | 54 | 1013.2 |